Location: Sabalos
(43.2860°N, 0.1414°E)
Time: 20:44:37
(UTC+00:00)

Iridium 2 - Pass Details

Date: 05 July 2020
Orbit: 503 x 516 km, 85.5° (Epoch: 14 August)

Event Time Altitude Azimuth Distance (km) Brightness Sun altitude
Rises 22:36:30 0° 359° (N) 2,648 8.5 -21.0°
Reaches altitude 10° 22:38:40 10° 4° (N) 1,756 7.3 -21.2°
Maximum altitude 22:42:27 58° 84° (E) 609 3.9 -21.4°
Enters shadow 22:42:28 58° 84° (E) 609 3.8 -21.4°
